#timestamp,LO_Frequency,Hit 
1506121215.4,286047005.8,P
1506121235.2,286047001.5,N
1506121255.0,286047000.5,N
1506121255.9,286047000.5,N
1506121275.8,286047000.8,N
1506121295.6,286047002.0,N
1506121315.4,286047006.0,P
1506121335.3,286047003.4,N
1506121355.1,286047003.4,N
1506121375.8,286047004.8,P
1506121395.7,286047002.2,P
1506121415.5,286047000.1,N
1506121435.3,286047003.5,N
1506121455.2,286047002.2,N
1506121475.9,286047000.1,N
1506121495.7,286047000.3,N
1506121515.6,286046999.8,N
1506121535.4,286046998.7,N
1506121555.2,286046998.7,N
1506121575.1,286046998.5,N
1506121576.0,286046998.5,N
1506121595.8,286047000.1,N
1506121615.6,286047002.5,N
1506121635.5,286046998.5,N
1506121655.3,286047000.2,N
1506121675.1,286047002.7,N
1506121695.8,286046999.8,N
1506121715.7,286047003.4,N
1506121735.5,286047003.6,N
1506121755.3,286046999.9,N
1506121775.2,286046999.6,N
1506121795.9,286046999.5,N
1506121815.7,286047002.5,N
1506121835.6,286046999.8,N
1506121855.4,286046999.4,N
1506121875.2,286046997.1,N
1506121895.1,286047000.6,N
1506121896.0,286047000.6,N
1506121915.8,286047000.7,N
1506121935.6,286046998.1,N
1506121955.5,286046999.1,N
1506121975.3,286046998.9,N
1506121995.1,286046998.5,N
1506122015.8,286046998.7,N
1506122035.7,286047000.3,N
1506122055.5,286046999.0,N
1506122075.3,286046999.6,N
1506122095.2,286047000.7,N
1506122115.9,286047002.7,N
1506122135.7,286047006.0,P
1506122155.6,286047003.5,N
1506122175.4,286047002.8,N
1506122195.2,286047002.8,N
1506122215.1,286047001.9,N
1506122216.0,286047001.9,N
1506122235.8,286047005.8,P
1506122255.6,286046998.6,N
1506122275.5,286046999.4,N
1506122295.3,286046999.3,N
1506122315.1,286046999.3,N
1506122335.9,286046999.3,N
1506122355.7,286046999.8,N
1506122375.5,286046998.6,N
1506122395.4,286046999.1,N
1506122415.2,286046998.3,N
1506122435.0,286046999.8,N
1506122435.9,286046999.8,N
1506122455.8,286047000.3,N
1506122475.6,286047000.0,N
1506122495.4,286047000.9,N
1506122515.3,286046999.8,N
1506122535.1,286047002.1,N
1506122536.0,286047002.1,N
1506122555.8,286047000.8,N
1506122575.6,286047002.6,N
1506122595.5,286047000.6,N
1506122615.3,286046997.7,N
1506122635.1,286046999.4,N
1506122655.9,286047002.3,N
1506122675.7,286047002.4,N
1506122695.5,286047004.4,N
1506122715.4,286046998.2,N
1506122735.2,286047001.0,N
1506122755.0,286046999.1,N
1506122755.9,286046999.1,N
1506122775.8,286046999.4,N
1506122795.6,286046997.4,N
1506122815.4,286046999.6,N
1506122835.3,286046995.0,P
1506122855.1,286046995.7,N
1506122856.0,286046995.7,N
1506122875.8,286046995.7,N
1506122895.7,286046997.9,N
1506122915.5,286046996.9,N
1506122935.3,286046999.4,N
1506122955.2,286046998.5,N
1506122975.9,286046998.4,N
1506122995.7,286046998.7,N
1506123015.5,286046998.7,N
1506123035.4,286046999.4,N
1506123055.2,286047001.2,N
1506123075.0,286046998.7,N
1506123075.9,286046998.7,N
1506123095.8,286046999.0,N
1506123115.6,286047000.9,N
1506123135.4,286047001.5,N
1506123155.3,286047001.6,N
1506123175.1,286047003.9,N
1506123195.8,286047003.2,N
1506123215.7,286047005.1,N
1506123235.5,286047001.6,N
1506123255.3,286047002.3,N
1506123275.2,286047001.3,N
1506123295.9,286047002.4,N
1506123315.7,286047001.7,N
1506123335.5,286047001.7,N
1506123355.4,286047002.9,N
1506123375.2,286047001.7,N
1506123395.0,286047002.5,N
1506123395.9,286047002.5,N
1506123415.8,286047002.8,N
1506123435.6,286047004.3,N
1506123455.4,286047002.9,N
1506123475.3,286047002.9,N
1506123495.1,286047005.6,N
1506123496.0,286047005.6,N
1506123515.8,286047001.8,N
1506123535.7,286047003.0,N
1506123555.5,286047007.5,P
1506123575.3,286047003.9,N
1506123595.2,286047001.7,N
1506123615.9,286047005.8,N
1506123635.7,286047005.8,N
1506123655.6,286047007.2,P
1506123675.4,286047002.7,N
1506123695.2,286047001.5,N
1506123715.1,286047003.8,N
1506123716.0,286047003.8,N
1506123735.8,286047002.5,N
1506123755.6,286047002.4,N
1506123775.5,286047000.0,N
1506123795.3,286047000.9,N
1506123815.1,286047001.9,N
1506123835.8,286046997.2,N
1506123855.7,286046996.8,N
1506123875.5,286046997.3,N
1506123895.3,286046998.4,N
1506123915.2,286047001.2,N
1506123935.9,286046997.0,N
1506123955.7,286046998.9,N
1506123975.6,286046998.7,N
1506123995.4,286046998.3,N
1506124015.2,286047000.5,N
1506124035.1,286046998.9,N
1506124036.0,286046998.9,N
1506124055.8,286046997.1,N
1506124075.6,286046998.3,N
1506124095.5,286047001.0,N
1506124115.3,286046999.1,N
1506124135.1,286046999.5,N
1506124155.8,286046997.0,N
1506124175.7,286046997.2,N
1506124195.5,286047001.0,N
1506124215.3,286046999.1,N
1506124235.2,286046997.0,N
1506124255.9,286046995.3,N
1506124275.7,286047001.2,N
1506124295.6,286047001.8,N
1506124315.4,286046997.3,N
1506124335.2,286046997.8,N
1506124355.1,286046995.2,N
1506124356.0,286046995.2,N
1506124375.8,286046995.3,N
1506124395.6,286046997.9,N
1506124415.5,286046996.8,N
1506124435.3,286047000.5,N
1506124455.1,286047002.1,N
1506124475.9,286047002.1,N
1506124495.7,286047001.7,N
1506124515.5,286047007.3,P
1506124535.4,286047008.8,N
1506124555.2,286047004.8,N
1506124575.0,286047007.1,N
1506124575.9,286047007.1,N
1506124595.8,286047006.1,N
1506124615.6,286047006.3,N
1506124635.4,286047005.3,N
1506124655.2,286047003.0,N
1506124675.1,286047003.7,N
1506124676.0,286047003.7,N
1506124695.8,286047002.1,N
1506124715.6,286047002.3,N
1506124735.5,286047004.0,N
1506124755.3,286047005.7,N
1506124775.1,286047008.1,P
1506124795.9,286047005.6,P
